Tracking 30922 objects as of 2-Jul-2025
HD Live streaming from Space Station
objects crossing your sky now

GALILEO 27 (223)

Track GALILEO 27 (223) now!
GALILEO 27 (223) is classified as:


NORAD ID: 49809
Int'l Code: 2021-117A
Perigee: 23,222.8 km
Apogee: 23,235.4 km
Inclination: 57.3 °
Period: 844.7 minutes
Semi major axis: 29600 km
RCS: Unknown
Launch date: December 5, 2021
Source: France (FR)
Launch site: FRENCH GUIANA (FRGUI)
Your satellite tracking list
WESTFORD NEEDLES
Track 1 satellite(s)




NASA's NSSDC Master Catalog

Two Line Element Set (TLE):
1 49809U 21116A   25182.20999720 -.00000098  00000-0  00000-0 0  9995
2 49809  57.2597 351.1513 0002131 179.2577 178.1047  1.70476205 22195
Source of the keplerian elements: AFSPC